Tracking 25648 objects as of 16-May-2022
HD Live streaming from Space Station
objects crossing your sky now

BREEZE-M R/B

Track BREEZE-M R/B now!


NORAD ID: 39614
Int'l Code: 2014-010C
Perigee: 35,521.5 km
Apogee: 41,978.8 km
Inclination: 7.0 °
Period: 1,589.8 minutes
Semi major axis: 45121 km
RCS: Unknown
Launch date: March 15, 2014
Source: Commonwealth of Independent States (former USSR) (CIS)
Launch site: TYURATAM MISSILE AND SPACE COMPLEX (TTMTR)

Note: This is a ROCKET BODY
aabbcc
Your satellite tracking list
Your tracking list is empty




NASA's NSSDC Master Catalog

Two Line Element Set (TLE):
1 39614U 14010C   22134.33122264 -.00000097  00000-0  00000-0 0  9991
2 39614   6.9876  70.9983 0715558  19.3470 343.0719  0.90580050 26969
Source of the keplerian elements: AFSPC